RYR93NC EYKA-LIPR

Flight info

Callsign RYR93NC
Flight time 2h 0m
Altitude 36000
Route KAZLA DCT BOKSU M985 EVINA Z175 SKARY DCT RAJKA DCT CEPRA DCT GIRDA DCT AMLON
Aircraft B738/M-SDE2E3FGHIRWXY/LB1

Departure

Time 2026-04-18 09:31
Airport Kaunas International Airport (EYKA)

Arrival

Time 2026-04-18 11:32
Airport Federico Fellini International Airport (LIPR)
Time Latitude Longitude Altitude Speed Heading
2026-04-18 08:59 54.96645 24.07557 244 ft 0 kts 105°
2026-04-18 09:19 54.96638 24.07597 244 ft 5 kts 116°
2026-04-18 09:20 54.96605 24.07636 244 ft 7 kts 164°
2026-04-18 09:20 54.96554 24.07647 244 ft 7 kts 181°
2026-04-18 09:20 54.96515 24.07581 244 ft 9 kts 256°
2026-04-18 09:20 54.96506 24.07465 244 ft 8 kts 265°
2026-04-18 09:21 54.96498 24.07373 244 ft 6 kts 243°
2026-04-18 09:21 54.96457 24.07335 244 ft 8 kts 181°
2026-04-18 09:21 54.96388 24.07344 244 ft 8 kts 176°
2026-04-18 09:21 54.96346 24.07302 245 ft 9 kts 237°
2026-04-18 09:22 54.96330 24.07211 244 ft 13 kts 262°
2026-04-18 09:22 54.96321 24.07054 244 ft 12 kts 265°
2026-04-18 09:22 54.96315 24.06909 243 ft 11 kts 265°
2026-04-18 09:22 54.96308 24.06771 242 ft 12 kts 265°
2026-04-18 09:23 54.96300 24.06595 242 ft 16 kts 265°
2026-04-18 09:23 54.96290 24.06395 241 ft 16 kts 264°
2026-04-18 09:23 54.96258 24.06194 239 ft 15 kts 239°
2026-04-18 09:23 54.96223 24.06057 238 ft 9 kts 268°
2026-04-18 09:24 54.96256 24.06018 238 ft 6 kts 40°
2026-04-18 09:24 54.96277 24.06162 239 ft 31 kts 84°
2026-04-18 09:24 54.96318 24.06987 244 ft 101 kts 87°
2026-04-18 09:24 54.96390 24.08551 245 ft 128 kts 84°
2026-04-18 09:25 54.96444 24.09629 249 ft 47 kts 82°
2026-04-18 09:25 54.96469 24.10048 253 ft 24 kts 85°
2026-04-18 09:25 54.96479 24.10280 255 ft 16 kts 85°
2026-04-18 09:25 54.96492 24.10521 257 ft 23 kts 85°
2026-04-18 09:26 54.96537 24.10795 258 ft 17 kts 57°
2026-04-18 09:26 54.96516 24.10863 258 ft 10 kts 224°
2026-04-18 09:26 54.96502 24.10712 258 ft 16 kts 264°
2026-04-18 09:26 54.96489 24.10417 256 ft 30 kts 265°
2026-04-18 09:27 54.96468 24.09997 252 ft 36 kts 265°
2026-04-18 09:27 54.96445 24.09589 248 ft 31 kts 267°
2026-04-18 09:27 54.96433 24.09281 247 ft 27 kts 264°
2026-04-18 09:27 54.96429 24.09198 246 ft 25 kts 264°
2026-04-18 09:28 54.96412 24.08841 245 ft 34 kts 266°
2026-04-18 09:28 54.96392 24.08368 245 ft 42 kts 264°
2026-04-18 09:28 54.96366 24.07868 245 ft 37 kts 264°
2026-04-18 09:28 54.96343 24.07452 245 ft 30 kts 264°
2026-04-18 09:29 54.96325 24.07107 244 ft 26 kts 265°
2026-04-18 09:29 54.96308 24.06788 243 ft 23 kts 265°
2026-04-18 09:29 54.96296 24.06524 241 ft 18 kts 266°
2026-04-18 09:29 54.96284 24.06312 240 ft 16 kts 258°
2026-04-18 09:30 54.96235 24.06121 239 ft 15 kts 250°
2026-04-18 09:30 54.96273 24.06095 239 ft 11 kts 77°
2026-04-18 09:30 54.96296 24.06531 241 ft 71 kts 85°
2026-04-18 09:30 54.96360 24.07824 246 ft 136 kts 85°
2026-04-18 09:31 54.96455 24.09762 451 ft 170 kts 82°
2026-04-18 09:31 54.96563 24.11855 1156 ft 173 kts 82°
2026-04-18 09:31 54.96675 24.14057 1655 ft 192 kts 83°
2026-04-18 09:31 54.96801 24.16645 1947 ft 226 kts 83°
2026-04-18 09:32 54.96933 24.19531 2745 ft 234 kts 85°
2026-04-18 09:32 54.96784 24.22426 3628 ft 241 kts 106°
2026-04-18 09:32 54.95898 24.24935 4382 ft 248 kts 137°
2026-04-18 09:32 54.94386 24.26713 4917 ft 266 kts 159°
2026-04-18 09:33 54.92517 24.27315 5688 ft 271 kts 178°
2026-04-18 09:33 54.90621 24.27541 6483 ft 277 kts 176°
2026-04-18 09:33 54.88677 24.27855 7415 ft 277 kts 176°
2026-04-18 09:33 54.86744 24.28139 8318 ft 277 kts 177°
2026-04-18 09:34 54.84824 24.28057 9111 ft 278 kts 195°
2026-04-18 09:34 54.83119 24.26689 9960 ft 275 kts 211°
2026-04-18 09:34 54.81475 24.24816 10491 ft 288 kts 220°
2026-04-18 09:34 54.80218 24.21875 10682 ft 312 kts 249°
2026-04-18 09:35 54.79701 24.18132 11395 ft 319 kts 258°
2026-04-18 09:35 54.79319 24.14165 12001 ft 328 kts 259°
2026-04-18 09:35 54.78928 24.10234 12789 ft 330 kts 254°
2026-04-18 09:35 54.77958 24.06573 13553 ft 330 kts 234°
2026-04-18 09:36 54.76559 24.03344 14398 ft 331 kts 233°
2026-04-18 09:36 54.75210 23.99934 15136 ft 336 kts 236°
2026-04-18 09:36 54.73933 23.96466 15896 ft 339 kts 237°
2026-04-18 09:36 54.72649 23.92964 16617 ft 342 kts 237°
2026-04-18 09:37 54.71336 23.89372 17327 ft 345 kts 238°
2026-04-18 09:37 54.70041 23.85809 18000 ft 349 kts 238°
2026-04-18 09:37 54.68724 23.82183 18599 ft 354 kts 238°
2026-04-18 09:37 54.67345 23.78385 18687 ft 374 kts 238°
2026-04-18 09:38 54.65910 23.74435 19160 ft 381 kts 238°
2026-04-18 09:38 54.64450 23.70418 19631 ft 387 kts 238°
2026-04-18 09:38 54.63002 23.66446 20173 ft 391 kts 238°
2026-04-18 09:38 54.61511 23.62360 20709 ft 395 kts 238°
2026-04-18 09:39 54.60022 23.58284 21232 ft 398 kts 239°
2026-04-18 09:39 54.58513 23.54161 21740 ft 401 kts 239°
2026-04-18 09:39 54.56999 23.50030 22229 ft 404 kts 239°
2026-04-18 09:39 54.55461 23.45843 22705 ft 407 kts 239°
2026-04-18 09:40 54.53900 23.41599 23170 ft 411 kts 239°
2026-04-18 09:40 54.52331 23.37359 23614 ft 414 kts 238°
2026-04-18 09:40 54.50620 23.33251 24034 ft 418 kts 232°
2026-04-18 09:40 54.48642 23.29527 24433 ft 423 kts 224°
2026-04-18 09:41 54.46308 23.26261 24852 ft 427 kts 218°
2026-04-18 09:41 54.43865 23.23127 25243 ft 430 kts 219°
2026-04-18 09:41 54.41458 23.19967 25610 ft 433 kts 219°
2026-04-18 09:41 54.39042 23.16778 25970 ft 437 kts 219°
2026-04-18 09:42 54.36570 23.13540 26324 ft 440 kts 219°
2026-04-18 09:42 54.34087 23.10335 26665 ft 443 kts 218°
2026-04-18 09:42 54.31500 23.07249 26986 ft 447 kts 214°
2026-04-18 09:42 54.28676 23.04760 27441 ft 449 kts 205°
2026-04-18 09:43 54.25735 23.02775 27988 ft 447 kts 203°
2026-04-18 09:43 54.22777 23.00795 28373 ft 448 kts 204°
2026-04-18 09:43 54.19830 22.98767 28797 ft 448 kts 204°
2026-04-18 09:43 54.16898 22.96762 29216 ft 448 kts 204°
2026-04-18 09:44 54.13963 22.94780 29618 ft 448 kts 204°
2026-04-18 09:44 54.11001 22.92791 30014 ft 448 kts 204°
2026-04-18 09:44 54.08082 22.90761 30394 ft 447 kts 207°
2026-04-18 09:44 54.05275 22.88260 30770 ft 444 kts 213°
2026-04-18 09:45 54.02594 22.85508 31155 ft 444 kts 214°
2026-04-18 09:45 53.99881 22.82742 31516 ft 444 kts 213°
2026-04-18 09:45 53.97168 22.80027 31877 ft 444 kts 213°
2026-04-18 09:45 53.94479 22.77329 32219 ft 444 kts 213°
2026-04-18 09:46 53.91783 22.74605 32557 ft 444 kts 213°
2026-04-18 09:46 53.89069 22.71870 32890 ft 444 kts 213°
2026-04-18 09:46 53.86368 22.69157 33207 ft 444 kts 213°
2026-04-18 09:46 53.83657 22.66436 33519 ft 444 kts 213°
2026-04-18 09:47 53.80970 22.63741 33822 ft 444 kts 213°
2026-04-18 09:47 53.78255 22.61021 34128 ft 444 kts 213°
2026-04-18 09:47 53.75560 22.58326 34454 ft 444 kts 213°
2026-04-18 09:47 53.72891 22.55659 34747 ft 443 kts 213°
2026-04-18 09:48 53.70216 22.52991 35054 ft 443 kts 213°
2026-04-18 09:48 53.67543 22.50328 35348 ft 442 kts 213°
2026-04-18 09:48 53.64852 22.47651 35641 ft 442 kts 213°
2026-04-18 09:48 53.62158 22.44975 35927 ft 441 kts 213°
2026-04-18 09:49 53.59519 22.42357 36157 ft 442 kts 213°
2026-04-18 09:49 53.56823 22.39685 36179 ft 444 kts 213°
2026-04-18 09:49 53.51401 22.34327 36200 ft 448 kts 213°
2026-04-18 09:50 53.45918 22.28922 36209 ft 458 kts 212°
2026-04-18 09:50 53.40341 22.23446 36209 ft 459 kts 212°
2026-04-18 09:51 53.34743 22.17966 36209 ft 457 kts 212°
2026-04-18 09:51 53.29190 22.12545 36209 ft 457 kts 212°
2026-04-18 09:52 53.23658 22.07160 36209 ft 457 kts 212°
2026-04-18 09:52 53.18085 22.01753 36209 ft 457 kts 212°
2026-04-18 09:53 53.12516 21.96367 36209 ft 457 kts 212°
2026-04-18 09:53 53.06935 21.90986 36209 ft 456 kts 213°
2026-04-18 09:54 53.01388 21.85653 36209 ft 454 kts 213°
2026-04-18 09:54 52.95866 21.80360 36209 ft 452 kts 213°
2026-04-18 09:55 52.90378 21.75114 36209 ft 451 kts 213°
2026-04-18 09:55 52.84831 21.69828 36209 ft 452 kts 213°
2026-04-18 09:56 52.79328 21.64601 36209 ft 452 kts 213°
2026-04-18 09:56 52.73832 21.59395 36209 ft 452 kts 213°
2026-04-18 09:57 52.68324 21.54192 36209 ft 452 kts 213°
2026-04-18 09:57 52.62819 21.49009 36209 ft 452 kts 213°
2026-04-18 09:58 52.57306 21.43832 36209 ft 452 kts 213°
2026-04-18 09:58 52.51800 21.38678 36209 ft 452 kts 213°
2026-04-18 09:59 52.46318 21.33556 36209 ft 452 kts 212°
2026-04-18 10:00 52.38060 21.25869 36209 ft 452 kts 212°
2026-04-18 10:00 52.32556 21.20765 36209 ft 452 kts 212°
2026-04-18 10:01 52.27033 21.15657 36209 ft 452 kts 212°
2026-04-18 10:01 52.21511 21.10565 36209 ft 452 kts 212°
2026-04-18 10:02 52.16026 21.05523 36209 ft 453 kts 212°
2026-04-18 10:02 52.10514 21.00468 36209 ft 455 kts 212°
2026-04-18 10:03 52.04908 20.95344 36209 ft 456 kts 213°
2026-04-18 10:03 51.99340 20.90269 36209 ft 458 kts 213°
2026-04-18 10:04 51.93748 20.85185 36209 ft 459 kts 213°
2026-04-18 10:04 51.88137 20.80101 36209 ft 458 kts 213°
2026-04-18 10:05 51.82501 20.75009 36209 ft 458 kts 213°
2026-04-18 10:05 51.76932 20.69992 36209 ft 458 kts 213°
2026-04-18 10:06 51.71333 20.64962 36209 ft 459 kts 213°
2026-04-18 10:06 51.65744 20.59955 36209 ft 458 kts 213°
2026-04-18 10:07 51.60132 20.54943 36209 ft 458 kts 213°
2026-04-18 10:07 51.54538 20.49960 36209 ft 459 kts 213°
2026-04-18 10:08 51.48921 20.44970 36209 ft 459 kts 213°
2026-04-18 10:08 51.43337 20.40025 36209 ft 458 kts 213°
2026-04-18 10:09 51.37741 20.35112 36213 ft 459 kts 211°
2026-04-18 10:09 51.31927 20.30786 36219 ft 462 kts 207°
2026-04-18 10:10 51.26094 20.26535 36223 ft 461 kts 208°
2026-04-18 10:10 51.20303 20.22264 36228 ft 461 kts 208°
2026-04-18 10:11 51.14504 20.18001 36233 ft 461 kts 208°
2026-04-18 10:11 51.08669 20.13716 36236 ft 461 kts 208°
2026-04-18 10:12 51.02886 20.09479 36235 ft 461 kts 208°
2026-04-18 10:12 50.97078 20.05232 36226 ft 462 kts 208°
2026-04-18 10:13 50.91193 20.00944 36216 ft 465 kts 208°
2026-04-18 10:13 50.85305 19.96697 36209 ft 465 kts 208°
2026-04-18 10:14 50.79380 19.92445 36209 ft 465 kts 208°
2026-04-18 10:14 50.73479 19.88119 36209 ft 465 kts 209°
2026-04-18 10:15 50.67646 19.83872 36208 ft 464 kts 208°
2026-04-18 10:15 50.61872 19.79688 36208 ft 465 kts 209°
2026-04-18 10:16 50.56069 19.75504 36209 ft 464 kts 208°
2026-04-18 10:16 50.50335 19.71398 36209 ft 464 kts 208°
2026-04-18 10:17 50.44555 19.67256 36209 ft 465 kts 208°
2026-04-18 10:17 50.38744 19.63094 36209 ft 465 kts 209°
2026-04-18 10:18 50.33007 19.59038 36209 ft 464 kts 208°
2026-04-18 10:18 50.27208 19.55022 36209 ft 465 kts 208°
2026-04-18 10:19 50.21395 19.50965 36209 ft 464 kts 208°
2026-04-18 10:19 50.15581 19.46898 36209 ft 465 kts 208°
2026-04-18 10:20 50.09764 19.42784 36208 ft 464 kts 209°
2026-04-18 10:20 50.03943 19.38669 36209 ft 464 kts 209°
2026-04-18 10:21 49.98175 19.34613 36210 ft 464 kts 208°
2026-04-18 10:21 49.92356 19.30528 36209 ft 466 kts 208°
2026-04-18 10:22 49.86509 19.26468 36208 ft 464 kts 207°
2026-04-18 10:22 49.80667 19.22510 36209 ft 464 kts 207°
2026-04-18 10:23 49.74822 19.18524 36209 ft 466 kts 208°
2026-04-18 10:23 49.68953 19.14435 36209 ft 465 kts 209°
2026-04-18 10:24 49.63124 19.10349 36209 ft 467 kts 209°
2026-04-18 10:24 49.57213 19.06290 36209 ft 470 kts 209°
2026-04-18 10:25 49.51297 19.02298 36209 ft 470 kts 210°
2026-04-18 10:25 49.45520 18.98047 36208 ft 465 kts 216°
2026-04-18 10:26 49.40391 18.92375 36210 ft 455 kts 227°
2026-04-18 10:26 49.35554 18.86279 36209 ft 455 kts 226°
2026-04-18 10:27 49.30656 18.80177 36209 ft 455 kts 226°
2026-04-18 10:27 49.25731 18.74016 36209 ft 454 kts 226°
2026-04-18 10:28 49.20812 18.67869 36209 ft 455 kts 227°
2026-04-18 10:28 49.15897 18.61739 36209 ft 455 kts 227°
2026-04-18 10:29 49.10966 18.55601 36209 ft 455 kts 227°
2026-04-18 10:29 49.06079 18.49530 36209 ft 459 kts 227°
2026-04-18 10:30 49.01038 18.43281 36209 ft 465 kts 228°
2026-04-18 10:30 48.95963 18.37009 36208 ft 470 kts 228°
2026-04-18 10:31 48.90874 18.30728 36203 ft 472 kts 227°
2026-04-18 10:31 48.85748 18.24435 36193 ft 469 kts 227°
2026-04-18 10:32 48.80652 18.18230 36184 ft 471 kts 227°
2026-04-18 10:32 48.75500 18.11942 36182 ft 472 kts 227°
2026-04-18 10:33 48.70414 18.05685 36182 ft 470 kts 228°
2026-04-18 10:33 48.65304 17.99428 36182 ft 470 kts 227°
2026-04-18 10:34 48.60211 17.93225 36182 ft 471 kts 227°
2026-04-18 10:34 48.55049 17.87031 36182 ft 473 kts 227°
2026-04-18 10:35 48.49884 17.80864 36181 ft 471 kts 227°
2026-04-18 10:35 48.44766 17.74728 36181 ft 471 kts 227°
2026-04-18 10:36 48.39635 17.68576 36182 ft 470 kts 227°
2026-04-18 10:36 48.34501 17.62476 36182 ft 470 kts 227°
2026-04-18 10:37 48.29375 17.56326 36182 ft 471 kts 228°
2026-04-18 10:37 48.24216 17.50144 36181 ft 471 kts 227°
2026-04-18 10:38 48.19072 17.44053 36182 ft 470 kts 227°
2026-04-18 10:38 48.13929 17.37984 36182 ft 471 kts 227°
2026-04-18 10:39 48.08748 17.31850 36182 ft 471 kts 227°
2026-04-18 10:39 48.03561 17.25696 36182 ft 472 kts 227°
2026-04-18 10:40 47.98549 17.19534 36182 ft 467 kts 230°
2026-04-18 10:40 47.93698 17.13201 36182 ft 468 kts 230°
2026-04-18 10:41 47.88857 17.06946 36182 ft 467 kts 230°
2026-04-18 10:41 47.83988 17.00687 36184 ft 467 kts 230°
2026-04-18 10:42 47.79076 16.94434 36191 ft 469 kts 231°
2026-04-18 10:42 47.74137 16.88183 36198 ft 470 kts 232°
2026-04-18 10:43 47.69198 16.81926 36206 ft 470 kts 233°
2026-04-18 10:43 47.64282 16.75713 36154 ft 470 kts 233°
2026-04-18 10:44 47.59291 16.69418 36067 ft 469 kts 233°
2026-04-18 10:44 47.54367 16.63221 36013 ft 469 kts 233°
2026-04-18 10:45 47.49412 16.56999 36002 ft 469 kts 233°
2026-04-18 10:45 47.44366 16.50677 36000 ft 470 kts 233°
2026-04-18 10:46 47.39372 16.44440 35999 ft 469 kts 233°
2026-04-18 10:46 47.34414 16.38263 35999 ft 469 kts 233°
2026-04-18 10:47 47.29376 16.31998 36000 ft 471 kts 233°
2026-04-18 10:47 47.24352 16.25769 35999 ft 472 kts 233°
2026-04-18 10:48 47.19315 16.19535 36000 ft 477 kts 232°
2026-04-18 10:48 47.14254 16.13297 36041 ft 476 kts 232°
2026-04-18 10:49 47.09174 16.07056 36110 ft 474 kts 232°
2026-04-18 10:49 47.04148 16.00886 36174 ft 475 kts 232°
2026-04-18 10:50 46.99027 15.94614 36182 ft 479 kts 232°
2026-04-18 10:50 46.93868 15.88311 36182 ft 484 kts 231°
2026-04-18 10:51 46.88695 15.82013 36182 ft 489 kts 231°
2026-04-18 10:51 46.83482 15.75687 36182 ft 490 kts 231°
2026-04-18 10:52 46.78289 15.69404 36182 ft 490 kts 231°
2026-04-18 10:52 46.73021 15.63043 36182 ft 489 kts 231°
2026-04-18 10:53 46.67809 15.56764 36182 ft 489 kts 231°
2026-04-18 10:53 46.62619 15.50527 36182 ft 489 kts 231°
2026-04-18 10:54 46.57423 15.44300 36182 ft 490 kts 231°
2026-04-18 10:54 46.52195 15.38049 36182 ft 490 kts 231°
2026-04-18 10:55 46.47004 15.31859 36182 ft 490 kts 230°
2026-04-18 10:55 46.41984 15.25887 36182 ft 491 kts 230°
2026-04-18 10:56 46.31881 15.13770 36182 ft 488 kts 231°
2026-04-18 10:57 46.26722 15.07486 36178 ft 488 kts 231°
2026-04-18 10:57 46.21576 15.01262 36171 ft 484 kts 231°
2026-04-18 10:58 46.16459 14.95085 36164 ft 480 kts 231°
2026-04-18 10:58 46.11383 14.88972 36157 ft 477 kts 230°
2026-04-18 10:59 46.06375 14.82955 36155 ft 475 kts 230°
2026-04-18 10:59 46.01309 14.76881 36155 ft 476 kts 230°
2026-04-18 11:00 45.96243 14.70824 36155 ft 477 kts 230°
2026-04-18 11:00 45.91177 14.64785 36155 ft 476 kts 230°
2026-04-18 11:01 45.86234 14.58909 36155 ft 475 kts 230°
2026-04-18 11:01 45.81160 14.52888 36155 ft 476 kts 230°
2026-04-18 11:02 45.73540 14.43875 36152 ft 476 kts 230°
2026-04-18 11:02 45.68476 14.37906 36143 ft 476 kts 230°
2026-04-18 11:03 45.63385 14.31915 36135 ft 477 kts 230°
2026-04-18 11:03 45.58275 14.25919 36108 ft 477 kts 230°
2026-04-18 11:04 45.55702 14.22910 35905 ft 474 kts 230°
2026-04-18 11:04 45.53180 14.19965 35709 ft 470 kts 230°
2026-04-18 11:04 45.50657 14.17018 35511 ft 469 kts 230°
2026-04-18 11:04 45.48139 14.14076 35311 ft 470 kts 230°
2026-04-18 11:05 45.45614 14.11150 34996 ft 468 kts 229°
2026-04-18 11:05 45.43109 14.08316 34456 ft 464 kts 229°
2026-04-18 11:05 45.40600 14.05500 33930 ft 459 kts 229°
2026-04-18 11:05 45.38166 14.02758 33407 ft 454 kts 229°
2026-04-18 11:06 45.35721 13.99997 32882 ft 449 kts 229°
2026-04-18 11:06 45.33325 13.97294 32361 ft 444 kts 229°
2026-04-18 11:06 45.30941 13.94608 31844 ft 440 kts 229°
2026-04-18 11:06 45.28542 13.91908 31323 ft 435 kts 229°
2026-04-18 11:07 45.26210 13.89285 30816 ft 430 kts 229°
2026-04-18 11:07 45.23890 13.86678 30310 ft 425 kts 228°
2026-04-18 11:07 45.21584 13.84089 29805 ft 420 kts 228°
2026-04-18 11:07 45.19325 13.81555 29329 ft 415 kts 228°
2026-04-18 11:08 45.17104 13.79072 29006 ft 406 kts 228°
2026-04-18 11:08 45.14930 13.76640 28574 ft 400 kts 228°
2026-04-18 11:08 45.12779 13.74231 28109 ft 396 kts 228°
2026-04-18 11:08 45.10643 13.71842 27639 ft 391 kts 228°
2026-04-18 11:09 45.08501 13.69450 27166 ft 387 kts 227°
2026-04-18 11:09 45.06405 13.67112 26702 ft 384 kts 227°
2026-04-18 11:09 45.04353 13.64825 26248 ft 380 kts 227°
2026-04-18 11:09 45.02284 13.62521 25790 ft 377 kts 227°
2026-04-18 11:10 45.00240 13.60247 25336 ft 374 kts 226°
2026-04-18 11:10 44.98212 13.57994 24886 ft 371 kts 226°
2026-04-18 11:10 44.96215 13.55775 24443 ft 372 kts 226°
2026-04-18 11:10 44.94162 13.53494 23984 ft 375 kts 225°
2026-04-18 11:11 44.92128 13.51241 23527 ft 372 kts 225°
2026-04-18 11:11 44.90092 13.48991 23073 ft 369 kts 225°
2026-04-18 11:11 44.88179 13.46877 22645 ft 366 kts 225°
2026-04-18 11:11 44.86186 13.44677 22200 ft 362 kts 225°
2026-04-18 11:12 44.84175 13.42458 21749 ft 359 kts 225°
2026-04-18 11:12 44.82184 13.40263 21303 ft 355 kts 224°
2026-04-18 11:12 44.80207 13.38085 20860 ft 352 kts 224°
2026-04-18 11:12 44.78280 13.35964 20427 ft 349 kts 224°
2026-04-18 11:13 44.76338 13.33828 19989 ft 346 kts 223°
2026-04-18 11:13 44.74423 13.31723 19558 ft 342 kts 223°
2026-04-18 11:13 44.72516 13.29631 19128 ft 339 kts 223°
2026-04-18 11:13 44.70618 13.27548 18707 ft 336 kts 223°
2026-04-18 11:14 44.68770 13.25523 18291 ft 333 kts 223°
2026-04-18 11:14 44.66931 13.23509 17875 ft 330 kts 222°
2026-04-18 11:14 44.65107 13.21513 17463 ft 327 kts 222°
2026-04-18 11:14 44.63280 13.19515 17050 ft 325 kts 222°
2026-04-18 11:15 44.61488 13.17558 16647 ft 322 kts 222°
2026-04-18 11:15 44.59722 13.15631 16250 ft 318 kts 221°
2026-04-18 11:15 44.57940 13.13688 15849 ft 315 kts 221°
2026-04-18 11:15 44.56206 13.11798 15457 ft 312 kts 221°
2026-04-18 11:16 44.54471 13.09909 15065 ft 309 kts 221°
2026-04-18 11:16 44.52775 13.08063 14680 ft 305 kts 221°
2026-04-18 11:16 44.51080 13.06221 14295 ft 302 kts 221°
2026-04-18 11:16 44.49407 13.04403 13918 ft 299 kts 220°
2026-04-18 11:17 44.47761 13.02616 13544 ft 295 kts 220°
2026-04-18 11:17 44.46128 13.00845 13171 ft 292 kts 220°
2026-04-18 11:17 44.44511 12.99092 12800 ft 290 kts 220°
2026-04-18 11:17 44.42882 12.97326 12428 ft 294 kts 219°
2026-04-18 11:18 44.41257 12.95568 12051 ft 290 kts 219°
2026-04-18 11:18 44.39637 12.93816 11677 ft 287 kts 219°
2026-04-18 11:18 44.38041 12.92091 11310 ft 284 kts 219°
2026-04-18 11:18 44.36454 12.90376 10948 ft 285 kts 219°
2026-04-18 11:19 44.34888 12.88622 10575 ft 286 kts 226°
2026-04-18 11:19 44.33730 12.86382 10206 ft 279 kts 249°
2026-04-18 11:19 44.33172 12.83764 9846 ft 274 kts 257°
2026-04-18 11:19 44.32669 12.81140 9481 ft 277 kts 256°
2026-04-18 11:20 44.32152 12.78565 9116 ft 276 kts 256°
2026-04-18 11:20 44.31646 12.75995 8757 ft 273 kts 256°
2026-04-18 11:20 44.31148 12.73467 8404 ft 270 kts 256°
2026-04-18 11:20 44.30646 12.70913 8050 ft 271 kts 256°
2026-04-18 11:21 44.30132 12.68300 7682 ft 273 kts 256°
2026-04-18 11:21 44.29758 12.66400 7416 ft 271 kts 256°
2026-04-18 11:23 44.29261 12.63879 7065 ft 268 kts 256°
2026-04-18 11:23 44.28763 12.61357 6678 ft 267 kts 256°
2026-04-18 11:23 44.28258 12.58804 6212 ft 269 kts 256°
2026-04-18 11:23 44.27747 12.56220 5839 ft 267 kts 256°
2026-04-18 11:24 44.27247 12.53700 5404 ft 269 kts 256°
2026-04-18 11:24 44.26741 12.51144 5009 ft 269 kts 256°
2026-04-18 11:24 44.26252 12.48681 4777 ft 261 kts 256°
2026-04-18 11:24 44.25773 12.46273 4562 ft 254 kts 256°
2026-04-18 11:25 44.25258 12.43962 4367 ft 247 kts 246°
2026-04-18 11:25 44.24222 12.42134 4109 ft 243 kts 218°
2026-04-18 11:25 44.22841 12.40776 3833 ft 241 kts 218°
2026-04-18 11:25 44.21538 12.39361 3612 ft 231 kts 219°
2026-04-18 11:26 44.20325 12.38053 3560 ft 215 kts 218°
2026-04-18 11:26 44.19128 12.36801 3507 ft 219 kts 212°
2026-04-18 11:26 44.17708 12.36198 3396 ft 215 kts 175°
2026-04-18 11:26 44.16414 12.37008 3333 ft 197 kts 131°
2026-04-18 11:27 44.15586 12.38503 3275 ft 197 kts 130°
2026-04-18 11:27 44.14544 12.39596 3218 ft 181 kts 150°
2026-04-18 11:27 44.13525 12.40570 3155 ft 176 kts 136°
2026-04-18 11:27 44.12735 12.41892 2994 ft 177 kts 126°
2026-04-18 11:28 44.11995 12.43245 2824 ft 175 kts 126°
2026-04-18 11:28 44.11259 12.44580 2677 ft 174 kts 126°
2026-04-18 11:28 44.10521 12.45915 2530 ft 173 kts 126°
2026-04-18 11:28 44.09782 12.47246 2311 ft 176 kts 126°
2026-04-18 11:29 44.09049 12.48566 2047 ft 170 kts 126°
2026-04-18 11:29 44.08332 12.49857 1829 ft 169 kts 126°
2026-04-18 11:29 44.07618 12.51144 1598 ft 169 kts 126°
2026-04-18 11:29 44.06923 12.52392 1372 ft 158 kts 126°
2026-04-18 11:30 44.06253 12.53596 1184 ft 153 kts 126°
2026-04-18 11:30 44.05611 12.54738 1001 ft 147 kts 127°
2026-04-18 11:30 44.04980 12.55851 856 ft 148 kts 125°
2026-04-18 11:30 44.04353 12.56993 645 ft 149 kts 126°
2026-04-18 11:31 44.03725 12.58128 404 ft 150 kts 125°
2026-04-18 11:31 44.03085 12.59271 164 ft 145 kts 125°
2026-04-18 11:31 44.02474 12.60368 36 ft 134 kts 123°
2026-04-18 11:31 44.02045 12.61146 40 ft 58 kts 127°
2026-04-18 11:32 44.01904 12.61395 42 ft 20 kts 128°
2026-04-18 11:32 44.01831 12.61536 43 ft 15 kts 122°
2026-04-18 11:32 44.01879 12.61659 42 ft 17 kts 39°
2026-04-18 11:32 44.01976 12.61764 41 ft 17 kts 38°
2026-04-18 11:33 44.02056 12.61850 39 ft 8 kts 37°
2026-04-18 11:33 44.02104 12.61889 38 ft 7 kts 355°
2026-04-18 11:33 44.02164 12.61874 38 ft 8 kts 32°
2026-04-18 11:33 44.02187 12.61898 37 ft 2 kts 38°
2026-04-18 11:34 44.02191 12.61903 37 ft 0 kts 38°